Location: Ch�tel-G�rard
(47.6311°N, 4.0967°E)
Time: 05:39:53
(UTC+00:00)

Daily predictions for brighter satellites

Satellite Brightness Start Highest point End
(mag) Time Altitude Azimuth Time Altitude Azimuth Time Altitude Azimuth
SL-16 R/B 4.5 00:03:06 10° N 00:07:21 21° NE 00:11:35 10° E
COSMOS 2487 4.4 00:10:12 27° NNW 00:10:12 27° NNW 00:12:21 10° N
Cosmos 1025 Rocket 4.1 00:08:14 10° N 00:12:12 36° ENE 00:12:12 36° ENE
NOSS 0 Rocket 4.1 00:07:36 10° NNW 00:13:52 68° ENE 00:15:54 43° SE
CZ-4 R/B 3.9 00:09:25 10° NNE 00:14:24 73° ESE 00:14:24 73° ESE
CZ-2D R/B 3.9 00:11:18 10° NE 00:15:16 20° E 00:16:30 19° ESE
COSMOS 2428 2.6 00:10:44 10° NNW 00:16:30 77° WSW 00:16:52 73° SSW
Lacrosse 4 Rocket 2.0 00:17:22 55° NNW 00:17:22 55° NNW 00:21:08 10° NNE
Cosmos 2360 Rocket 3.5 00:13:35 10° NW 00:17:41 26° W 00:17:41 26° W
GEOS 3 Rocket 4.4 00:13:16 10° NE 00:18:01 39° ESE 00:18:01 39° ESE
Cosmos 783 Rocket 4.4 00:13:15 10° NNW 00:18:32 82° ENE 00:18:53 76° ESE
Lacrosse 5 4.2 00:15:52 10° W 00:16:29 12° W 00:16:29 12° W
Cosmos 1503 Rocket 3.9 00:21:18 79° SW 00:21:37 87° WNW 00:27:02 10° NNE
Meteor 2-9 Rocket 4.1 00:27:29 68° SW 00:28:04 76° WNW 00:33:47 10° N
Cosmos 1536 Rocket 4.4 00:23:56 10° N 00:28:05 42° ENE 00:28:12 42° E
Cosmos 1782 Rocket 4.0 00:30:21 53° NW 00:30:21 53° NW 00:34:11 10° N
Cosmos 2297 Rocket 3.2 00:30:52 32° ESE 00:31:23 32° ESE 00:36:22 10° NE
Cosmos 1980 3.9 00:27:23 10° NNW 00:33:04 66° ENE 00:34:49 43° ESE
Cosmos 2219 3.9 00:32:41 38° ESE 00:33:08 39° ESE 00:38:19 10° NE
Cosmos 1464 Rocket 4.0 00:34:33 56° SW 00:35:45 69° W 00:41:58 10° N
Cosmos 2333 Rocket 2.7 00:30:27 10° NW 00:35:43 45° WSW 00:35:43 45° WSW
ERBS 4.2 00:36:07 10° NW 00:38:34 29° N 00:38:34 29° N
MOZ.5/SAFIR/RUBIN 5/SL-8 4.5 00:38:18 43° ESE 00:39:14 49° ENE 00:43:50 10° N
Cosmos 1975 4.0 00:41:49 34° NW 00:41:49 34° NW 00:44:58 10° N
Cosmos 2237 Rocket 2.3 00:37:12 10° NNW 00:42:53 72° ENE 00:44:32 46° SE
Helios 1B rocket 2.8 00:49:49 10° N 00:53:28 56° NW 00:53:28 56° NW
Nadezhda 4 Rocket 4.1 00:51:35 10° NNW 00:57:47 60° W 00:58:57 51° SW
Cosmos 1538 Rocket 4.0 00:53:41 10° NNW 00:58:53 78° ENE 00:59:58 56° SE
ATLAS 3B R/B 3.7 00:54:42 17° W 00:59:13 39° NW 01:05:29 10° NNE
CZ-4C R/B 4.2 01:00:00 38° ENE 01:00:00 38° ENE 01:03:13 10° N
In-Cosmos 22 4.1 00:54:27 10° NNW 01:00:07 87° W 01:01:07 62° S
Okean 2 Rocket 3.1 01:02:15 67° WNW 01:02:15 67° WNW 01:06:40 10° N
SL-16 R/B 2.7 00:59:59 33° SE 01:02:53 70° ENE 01:09:08 10° NNW
Cosmos 2034 Rocket 4.2 01:02:10 48° SW 01:03:38 60° WNW 01:09:53 10° N
Cosmos 1707 3.8 01:01:24 10° NNW 01:04:13 38° NW 01:04:13 38° NW
USA 215 4.2 00:59:54 10° ENE 01:05:36 31° SE 01:06:48 29° SSE
Cosmos 773 Rocket 4.0 01:02:16 10° NNW 01:07:20 59° WSW 01:07:22 59° WSW
Cosmos 1092 Rocket 3.9 01:04:48 10° NNW 01:11:03 75° W 01:12:41 51° SSW
Meteor 1-12 Rocket 4.4 01:11:31 52° SW 01:12:54 69° WNW 01:18:56 10° N
Resurs 1-4 Rocket 2.4 01:07:55 10° NNE 01:13:08 57° E 01:14:25 45° SSE
Cosmos 1805 4.0 01:13:32 43° E 01:13:35 43° E 01:17:17 10° NNE
Cosmos 1300 Rocket 3.8 01:13:42 53° WNW 01:13:42 53° WNW 01:17:50 10° N
Uosat 12 SS-18 rocket 4.2 01:18:27 65° S 01:18:57 71° SE 01:23:27 10° NE
Okean 1 Rocket 3.2 01:18:56 58° SE 01:19:21 62° E 01:23:39 10° NNE
Meteor 1-15 Rocket 4.3 01:17:58 49° SSE 01:19:31 73° E 01:25:07 10° NNE
Cosmos 2227 Rocket 2.3 01:19:04 49° S 01:20:24 65° ESE 01:26:02 10° NNE
Cosmos 1674 2.8 01:18:13 10° N 01:21:38 71° NNE 01:21:38 71° NNE
DELTA 2 DEB (DPAF) 4.0 01:25:26 68° WSW 01:25:35 69° WSW 01:30:02 10° NNW
AQUA 4.4 01:22:51 10° NNE 01:27:31 50° E 01:28:45 39° SE
Cosmos 1733 3.9 01:27:32 42° ESE 01:27:51 43° E 01:31:31 10° NNE
UNK 3.6 01:27:34 62° S 01:28:21 84° WSW 01:33:04 10° NNW
Cosmos 2151 Rocket 4.0 01:33:15 44° W 01:33:29 45° WNW 01:37:44 10° N
Cosmos 2219 Rocket 4.0 01:33:48 10° WNW 01:36:26 16° W 01:36:26 16° W
ARIANE 5 R/B 4.5 01:34:50 10° NE 01:38:54 23° E 01:42:41 11° SE
USA 267 3.9 01:32:45 10° E 01:39:05 56° NNE 01:45:27 10° NW
SJ 16-02 1.9 01:40:06 41° SE 01:41:04 49° ESE 01:45:21 10° NNE
Cosmos 2082 4.0 01:39:45 37° SSE 01:41:41 56° ESE 01:47:11 10° NE
Cosmos 1680 Rocket 3.8 01:36:32 10° NNW 01:41:45 64° ENE 01:45:53 16° SE
Cosmos 2344 4.4 01:35:27 10° NW 01:45:01 66° WSW 01:58:19 10° SSE
Timation 2 Rocket 4.4 01:44:09 31° WSW 01:46:44 49° NW 01:52:36 10° NNE
DNEPR-1 R/B 3.9 01:42:10 10° NW 01:47:58 67° WSW 01:49:48 38° SSE
IRAS Rocket 4.4 01:48:37 42° SW 01:49:57 52° WSW 01:55:25 10° NNW
SL-16 R/B 2.1 01:46:32 10° NNW 01:52:17 89° WSW 01:56:46 17° SSE
SL-4 R/B 2.5 01:54:33 35° ESE 01:54:33 35° ESE 01:56:39 10° ESE
Cosmos 1455 Rocket 4.0 01:51:23 26° SE 01:53:19 42° E 01:57:32 10° NNE
Cosmos 1461 3.9 01:52:47 34° SSE 01:53:47 39° ESE 01:58:01 10° NE
Meteor 1-24 Rocket 3.6 01:50:16 10° N 01:55:48 85° ENE 01:58:47 27° SSE
CZ-2D R/B 2.2 01:50:20 10° N 01:55:48 68° WNW 01:57:49 39° SW
IRS-1D 3.7 01:51:11 10° NNE 01:56:12 64° ESE 01:58:30 32° S
GEOS 3 Rocket 4.3 01:51:12 10° NNE 01:56:26 51° NW 01:59:07 27° WSW
Lacrosse 4 Rocket 4.1 01:54:51 10° WNW 01:56:31 12° NNW 01:58:11 10° N
NPP 3.6 01:51:50 10° NNE 01:57:14 76° WNW 01:59:17 39° SSW
ADEOS II 2.5 01:53:31 10° NNE 01:58:43 58° E 02:01:25 28° S
Cosmos 1892 Rocket 3.6 01:56:29 10° N 02:00:59 79° E 02:03:00 32° SSE
CZ-4B R/B 3.3 01:57:13 10° NNE 02:02:01 80° ESE 02:03:51 38° S
SL-24 R/B 4.3 02:01:32 36° S 02:03:34 85° W 02:08:37 10° N
Meteor 2-5 Rocket 3.7 01:57:58 10° NNW 02:03:35 65° W 02:05:59 34° SSW
Cosmos 2180 Rocket 4.4 02:03:22 31° S 02:06:29 85° W 02:12:40 10° N
USA 229 DEB 4.3 02:05:21 23° S 02:08:58 44° ESE 02:15:21 10° NE
USA 229 4.3 02:05:27 23° S 02:09:03 43° ESE 02:15:24 10° NE
Cosmos 2279 Rocket 4.1 02:09:05 32° SSW 02:11:56 63° WNW 02:18:07 10° N
Cosmos 2263 Rocket 3.9 02:07:55 11° SSE 02:12:10 26° ESE 02:16:40 10° NE
Cosmos 923 Rocket 4.1 02:06:57 10° NNW 02:12:11 58° WSW 02:14:41 30° S
Cosmos 158 Rocket 4.0 02:06:55 10° NNW 02:12:18 74° WSW 02:16:10 19° SSE
Cosmos 2297 Rocket 2.8 02:12:41 28° WSW 02:15:16 46° NW 02:20:43 10° NNE
Cosmos 1626 2.2 02:12:21 10° NNW 02:16:01 57° W 02:16:34 51° SW
Cosmos 2219 4.0 02:14:36 25° WSW 02:17:17 39° NW 02:22:33 10° NNE
Cosmos 1766 3.8 02:17:11 38° W 02:17:48 41° WNW 02:21:31 10° N
Cosmos 2098 Rocket 3.6 02:15:11 10° N 02:20:01 89° E 02:25:09 15° S
NOSS 3-1 (A) 4.4 02:16:55 18° S 02:20:16 34° ESE 02:25:47 10° NE
Meteor 1-22 Rocket 4.0 02:19:30 32° SSW 02:21:59 71° WNW 02:27:19 10° N
Meteor 1-28 Rocket 3.6 02:20:46 17° SSE 02:23:37 64° ENE 02:27:24 10° N
Cosmos 2237 Rocket 3.6 02:22:24 10° NW 02:26:18 20° W 02:26:18 20° W
H-2A R/B 3.8 02:27:04 10° SE 02:30:42 31° ENE 02:34:20 10° N
Cosmos 1603 4.4 02:26:13 10° NNW 02:31:54 58° ENE 02:37:31 10° SE
Cosmos 1470 2.7 02:32:06 31° S 02:33:55 87° W 02:37:57 10° N
SeaSat 1 4.4 02:35:35 10° NE 02:39:27 23° ESE 02:43:17 10° SSE
Cosmos 1544 Rocket 3.5 02:37:11 23° S 02:39:55 90° SSE 02:44:26 10° N
COBE Rocket 4.4 02:39:56 27° SW 02:41:37 36° W 02:45:54 10° NNW
Cosmos 1607 4.3 02:37:02 10° NW 02:43:04 43° WSW 02:49:06 10° S
SL-16 R/B 3.7 02:45:05 20° WSW 02:47:02 23° W 02:51:52 10° NW
FALCON 9 DEB 3.0 02:44:21 10° WNW 02:47:49 70° SSW 02:51:17 10° SE
USA 215 3.3 02:42:31 10° NE 02:49:06 89° NNW 02:54:08 19° WSW
IRS-P3 4.2 02:46:37 10° N 02:51:56 68° WNW 02:55:47 19° SSW
Resurs 1-4 Rocket 3.5 02:48:26 10° N 02:52:35 24° WNW 02:55:29 15° WSW
Okean 1-7 Rocket 4.1 02:49:26 10° NNW 02:53:34 39° W 02:55:58 22° SSW
SL-14 R/B 4.4 02:50:40 10° NW 02:53:53 25° W 02:54:47 22° WSW
Cosmos 1943 3.4 02:52:28 10° NNW 02:58:07 74° ENE 03:03:44 10° SSE
Cosmos 1602 Rocket 3.6 02:54:10 10° N 02:58:34 83° E 03:02:54 10° S
Cosmos 2266 Rocket 4.4 02:56:54 10° NNW 03:02:54 45° W 03:08:13 13° SSW
Cosmos 2227 Rocket 3.6 03:00:53 13° W 03:04:57 26° NW 03:09:41 10° N
Meteor 2-21 Rocket 4.5 02:59:39 10° N 03:05:46 88° E 03:11:50 10° S
Meteor 1-21 Rocket 4.1 03:06:24 10° NNW 03:11:57 74° W 03:17:28 10° S
Cosmos 1758 3.9 03:09:52 19° SW 03:12:22 40° WNW 03:16:12 10° N
Cosmos 1937 Rocket 3.7 03:09:43 17° SW 03:13:49 59° WNW 03:19:06 10° NNE
ERS-2 2.4 03:11:32 10° SSE 03:15:08 70° ENE 03:18:48 10° N
MSX 4.1 03:10:00 10° NNE 03:15:46 70° ESE 03:21:31 10° S
CZ-2C R/B 2.9 03:12:57 10° NNE 03:16:52 74° ESE 03:20:39 10° S
CSL-04 DEB 4.2 03:13:07 10° S 03:17:01 71° WSW 03:20:58 10° NNW
Cosmos 2227 4.3 03:12:17 13° SSW 03:17:33 88° ESE 03:23:22 10° NNE
NOSS 2-3 (E) 3.7 03:14:35 16° SW 03:18:01 81° SE 03:23:07 10° NE
ARIANE 5 R/B 2.8 03:13:14 10° N 03:18:20 56° WNW 03:23:01 12° SW
Cosmos 1726 2.3 03:16:22 15° SSW 03:19:16 55° WNW 03:22:54 10° N
SJ 16-02 3.0 03:17:05 12° W 03:19:55 21° NW 03:23:20 10° N
Cosmos 1898 Rocket 4.2 03:16:03 15° SW 03:19:57 40° WNW 03:24:53 10° N
Meteor 2-14 Rocket 4.5 03:14:37 10° NNW 03:20:35 61° W 03:26:32 10° S
CZ-4B R/B 3.8 03:18:26 10° SE 03:21:11 25° ENE 03:23:54 10° NNE
USA 267 3.2 03:15:34 10° SE 03:22:03 65° SW 03:28:34 10° WNW
Nadezhda 2 Rocket 4.5 03:17:19 10° NNW 03:23:31 67° W 03:29:36 10° S
CZ-4C R/B 2.7 03:21:43 10° S 03:24:55 70° WSW 03:28:14 10° NNW
NOSS 3-1 (C) 3.6 03:20:59 14° WSW 03:25:48 62° NW 03:32:18 10° NE
Cosmos 1340 Rocket 3.9 03:24:07 15° WSW 03:26:44 28° WNW 03:30:12 10° N
IDEFIX/ARIANE 42P 2.6 03:23:06 10° N 03:28:17 68° WNW 03:33:26 10° SSW
Cosmos 1626 Rocket 4.2 03:27:00 10° NNW 03:30:55 34° W 03:34:49 10° SSW
Cosmos 1908 3.3 03:27:05 10° S 03:30:58 80° E 03:34:55 10° NNE
SL-4 R/B 3.1 03:30:22 11° W 03:32:21 16° SW 03:34:34 10° S
SL-08 R/B 4.4 03:28:38 10° SSW 03:32:47 27° W 03:36:59 10° NW
Meteor 1-16 Rocket 4.1 03:27:30 10° SSW 03:32:52 83° WNW 03:38:26 10° N
Cosmos 1461 4.2 03:29:10 11° WSW 03:32:58 34° NW 03:37:10 10° NNE
Landsat 5 3.3 03:29:17 10° S 03:33:09 64° WSW 03:37:10 10° NNW
Cosmos 372 Rocket 4.0 03:28:07 10° SSW 03:33:19 80° WNW 03:38:37 10° NNE
Cosmos 1953 2.8 03:30:42 11° SSW 03:34:24 44° WNW 03:38:19 10° N
CZ-2D R/B 4.2 03:32:28 10° NNW 03:34:52 13° NW 03:37:15 10° WNW
ATLAS CENTAUR R/B 3.1 03:31:30 10° S 03:35:01 27° ESE 03:38:23 10° ENE
CZ-2C R/B 3.2 03:30:55 10° NNE 03:35:22 48° E 03:39:49 10° S
SL-16 R/B 3.8 03:32:29 10° WNW 03:35:32 15° W 03:38:31 10° SW
CZ-2D R/B 4.0 03:33:16 10° N 03:37:06 41° WNW 03:40:52 10° SW
ADEOS II 3.5 03:33:56 10° N 03:38:02 24° WNW 03:42:07 10° WSW
NOSS 2-3 (D) 3.8 03:37:43 11° SW 03:41:53 73° NW 03:47:01 10° NE
Cosmos 2058 Rocket 4.5 03:43:43 10° SSE 03:47:55 41° E 03:52:07 10° NNE
Cosmos 1758 Rocket 3.6 03:45:22 10° NNW 03:49:36 57° W 03:53:50 10° S
Cosmos 2228 3.1 03:45:17 10° S 03:49:38 85° ESE 03:54:04 10° N
Cosmos 1125 Rocket 3.9 03:45:59 10° S 03:51:09 67° ESE 03:56:24 10° NNE
Cosmos 1328 3.9 03:48:32 10° NNW 03:52:28 56° W 03:56:22 10° S
SAR-Lupe-4 3.9 03:49:41 10° SSE 03:53:14 71° ENE 03:56:50 10° N
Cosmos 2263 Rocket 2.5 03:50:15 10° SW 03:55:43 55° WNW 04:01:13 10° NNE
Aureole 3 4.4 03:54:05 10° S 03:59:19 85° W 04:06:00 10° N
USA 229 DEB 4.2 03:53:26 10° WSW 03:59:50 51° NW 04:06:38 10° NE
USA 229 4.2 03:53:32 10° WSW 03:59:54 51° NW 04:06:41 10° NE
Cosmos 1703 3.8 03:56:25 10° NNW 04:00:08 39° W 04:03:49 10° SSW
Cosmos 2297 Rocket 4.4 03:58:33 10° NW 04:00:52 12° NNW 04:03:10 10° N
